RH
4 4 5 6 7 8 9 10 10 10 10 9 8 8 8 8 10 12 15 30 44 52 51 57 60 58 52 44 37 31 27 26 33 39 36 36 36 35 35 49 60 66 64 66 67 67 68 68 72 77 80 82 82 83 83 83 83 84 84 84 85 86 86 86 86 86 86 86 86 85 84 81 80 80 78 74 69 63 54 55 54 51 44 39 37 36
4 4 5 6 7 8 9 10 10 10 10 9 9 8 8 8 9 12 15 34 49 56 51 56 61 63 60 52 45 39 34 31 32 35 37 38 39 37 34 46 56 64 67 70 72 73 72 69 69 73 78 80 81 82 82 82 81 82 82 82 84 84 84 85 85 86 86 85 85 85 85 85 86 86 85 82 78 72 66 63 59 54 46 42 40 40
4 4 5 6 7 8 9 10 10 10 10 10 9 8 8 8 8 11 14 42 55 57 52 59 64 67 66 61 56 50 43 37 34 34 39 42 42 41 40 46 53 60 65 69 71 73 73 70 70 72 77 79 80 80 81 80 80 79 80 81 81 81 82 83 84 84 85 85 84 84 83 84 86 86 86 85 81 77 74 70 65 59 52 49 47 46
4 4 5 6 7 8 9 10 10 10 10 10 9 8 8 7 8 11 16 46 58 58 51 63 70 74 73 72 68 63 55 46 38 36 40 43 45 47 48 47 50 55 60 65 70 74 75 74 73 73 76 78 79 79 78 76 76 76 76 77 77 76 76 78 80 81 82 82 84 84 82 84 84 86 86 86 84 82 78 74 70 65 60 58 56 54
5 4 5 6 7 8 9 10 10 10 10 10 9 8 8 7 8 11 20 50 60 59 53 64 73 78 79 79 77 73 66 56 46 41 41 42 45 48 49 48 48 50 54 59 66 72 76 75 74 74 76 77 78 78 76 74 72 70 70 71 71 71 71 73 75 77 77 78 81 83 82 82 83 85 87 87 86 85 82 80 76 72 68 65 64 63
5 5 5 6 7 8 8 9 10 10 10 10 9 8 8 7 8 11 21 54 63 58 53 67 76 80 81 80 80 77 73 65 55 48 44 42 43 45 46 49 48 48 48 54 62 69 74 74 73 72 73 74 76 75 74 72 69 66 66 66 66 66 66 68 70 72 74 74 77 81 84 82 82 84 86 86 87 86 84 83 81 77 72 70 69 68
5 5 5 6 7 8 8 9 10 10 10 10 9 8 8 7 7 10 21 51 61 58 53 69 78 81 80 80 80 78 76 68 60 54 49 46 46 46 47 50 49 46 44 50 57 65 70 71 70 68 68 72 73 72 71 68 66 65 65 65 64 64 63 65 67 69 71 70 74 80 85 84 82 83 84 86 86 86 85 84 83 81 78 75 72 70
5 5 5 6 7 8 9 9 10 10 10 10 9 8 8 7 7 10 18 43 57 61 58 71 78 80 80 80 79 78 76 70 66 61 56 52 51 50 49 52 50 44 40 44 50 57 63 65 65 65 66 68 70 70 68 65 66 68 71 71 70 68 68 68 68 70 70 69 72 78 84 84 84 83 83 85 86 85 84 84 83 82 82 80 78 74
5 5 5 6 7 8 8 9 10 10 10 10 9 8 8 7 7 10 14 38 56 66 66 74 79 81 80 80 80 78 72 70 68 67 66 63 62 61 60 60 54 47 42 41 44 50 58 61 63 64 63 64 65 65 63 65 69 75 78 78 77 76 74 74 73 72 70 69 70 73 79 83 84 84 84 84 85 86 85 84 83 83 83 84 82 80
6 5 5 6 7 8 8 9 10 10 10 10 10 9 8 7 8 10 13 34 56 70 70 76 80 82 80 80 80 78 72 72 72 74 76 76 76 75 74 72 69 65 59 57 58 62 65 64 62 60 58 57 59 62 66 72 76 79 81 79 78 77 76 75 74 72 69 68 68 69 74 80 83 84 84 83 84 85 86 85 85 85 85 84 84 84
6 5 5 6 6 8 8 9 10 10 10 10 10 9 8 7 8 9 12 33 56 72 73 78 81 82 80 80 80 79 74 76 79 81 82 82 82 81 80 80 80 80 76 76 76 77 76 74 71 68 64 66 68 72 76 79 80 79 79 76 74 73 72 70 70 68 66 65 66 68 71 76 81 84 84 82 82 82 84 85 85 85 85 84 84 84
6 6 6 6 6 8 8 9 10 10 10 10 10 9 8 7 7 8 11 29 54 74 75 77 81 83 82 80 80 79 76 80 82 84 84 83 82 82 81 80 81 81 80 80 80 80 80 80 80 79 78 78 79 80 81 80 79 78 78 74 70 66 65 64 64 64 63 63 65 68 72 76 81 84 84 82 80 78 80 82 84 83 83 82 82 82
6 6 6 6 6 7 8 9 10 10 10 10 10 9 8 8 7 8 10 21 49 74 75 75 79 84 83 81 80 79 80 82 84 84 84 84 83 82 81 80 80 80 80 79 79 79 80 80 81 81 81 80 80 80 79 77 76 75 76 70 66 62 60 61 62 63 63 64 66 68 73 77 80 82 82 81 78 75 74 78 80 80 80 80 79 78
6 6 6 6 6 7 8 9 9 10 10 10 10 9 9 8 7 8 8 16 40 65 74 70 76 83 84 82 80 79 81 83 84 83 84 84 83 82 81 80 78 77 77 78 79 78 79 80 80 80 79 78 78 76 74 72 71 71 72 67 63 61 61 63 64 66 68 70 71 72 74 78 80 82 81 80 76 73 70 73 76 78 78 78 77 76
6 6 6 6 7 7 8 8 9 10 10 10 10 9 9 8 7 7 8 12 29 50 68 66 72 80 84 82 80 78 80 82 84 84 84 84 84 82 81 80 78 76 74 77 78 78 78 78 78 76 76 74 72 69 65 61 60 62 65 65 65 66 68 70 71 72 74 78 78 78 78 79 80 80 79 78 76 73 69 70 74 76 78 77 76 75
6 6 6 6 7 7 8 8 9 10 10 10 10 9 9 8 7 7 8 10 20 36 56 62 69 77 84 82 80 78 78 82 84 84 84 84 84 82 82 79 76 72 69 73 76 78 77 77 76 74 70 66 62 56 51 48 48 50 58 67 73 76 79 79 78 78 80 82 83 82 80 80 80 79 78 77 76 74 72 72 72 73 76 76 75 74
6 6 6 6 7 7 8 8 9 10 10 10 9 9 9 8 8 7 7 10 16 26 43 54 65 75 83 82 80 78 77 81 83 84 84 84 84 83 82 79 76 72 68 69 72 74 73 70 66 62 58 52 46 41 37 39 40 46 56 70 79 84 85 84 84 83 83 84 83 82 81 80 79 78 77 76 76 74 74 72 72 72 72 71 70 70
6 6 6 6 6 7 8 8 9 10 10 10 9 9 9 8 8 7 6 8 13 22 34 44 59 74 82 82 81 79 75 81 83 84 84 84 84 83 82 80 76 74 73 71 69 66 63 60 57 52 45 38 34 34 42 47 50 55 66 78 83 84 84 84 84 84 84 83 82 82 80 79 78 77 76 76 76 75 74 74 72 70 69 67 66 65
6 6 6 6 6 7 8 8 9 10 10 10 9 9 9 9 8 7 6 7 11 18 28 39 56 71 81 81 81 80 79 82 83 84 84 84 84 83 83 81 79 78 78 76 74 69 63 59 54 50 48 51 56 63 68 70 71 74 79 82 84 83 83 82 82 82 82 82 81 80 80 78 76 75 74 74 75 75 74 74 73 71 69 66 62 60
6 6 6 6 6 7 8 8 9 10 10 10 9 9 9 8 8 8 6 6 9 14 23 36 52 68 80 80 80 82 83 83 82 82 84 84 83 83 84 82 81 79 78 76 74 70 60 58 60 64 70 76 80 82 82 81 81 81 81 81 81 81 81 80 79 78 79 79 79 78 78 76 74 72 71 72 72 73 73 73 72 71 70 67 64 61
6 6 6 6 6 7 8 8 9 10 10 9 9 9 8 8 8 8 7 6 8 11 18 32 51 68 79 78 80 82 84 84 83 83 84 84 83 83 84 83 82 80 78 71 63 58 59 70 79 84 85 84 83 82 82 82 81 80 79 79 79 79 78 77 75 74 74 76 76 76 74 72 70 68 68 68 69 70 71 71 71 71 70 68 65 62
6 6 5 5 6 7 8 8 9 9 9 9 9 8 8 8 8 8 7 6 6 9 14 27 47 66 78 78 79 81 83 84 83 83 82 82 82 84 84 83 82 80 76 69 68 71 80 84 84 84 84 83 82 82 82 82 81 80 79 78 78 77 76 74 73 71 67 71 72 71 70 68 66 65 65 66 66 67 68 69 70 70 70 68 65 62
6 6 5 5 6 6 7 8 8 9 9 9 9 8 8 8 8 8 8 6 6 7 10 22 39 59 75 77 78 80 82 83 83 82 82 82 83 83 83 83 82 81 79 76 78 81 84 83 83 83 84 83 82 82 82 82 82 81 80 79 77 76 74 72 70 68 64 65 66 66 64 62 62 64 65 65 65 65 66 68 69 70 70 68 65 62
6 6 5 5 6 6 7 8 8 8 9 9 9 8 8 8 8 8 8 7 6 6 8 16 29 47 68 74 77 79 82 82 82 82 82 83 83 82 82 83 82 82 81 81 81 82 82 82 82 82 83 82 82 82 82 82 82 81 80 79 77 75 73 71 69 66 62 61 61 60 59 58 59 62 65 64 64 64 65 66 68 69 69 67 64 61
6 6 6 5 6 6 7 8 8 8 9 9 9 8 8 8 8 8 8 7 6 6 7 12 20 34 52 65 72 77 81 82 82 82 82 83 82 82 83 83 82 82 81 80 81 81 81 81 81 82 82 82 81 81 81 81 81 80 80 78 76 74 72 70 67 64 61 60 58 57 56 54 56 60 63 63 63 63 64 66 68 68 68 65 61 58
8 7 6 6 6 6 7 8 8 8 9 9 9 8 8 8 8 8 8 8 6 6 6 9 15 24 39 54 64 72 78 80 81 82 82 82 82 83 82 82 82 82 80 80 80 80 80 79 79 80 81 81 80 79 79 79 79 79 78 77 76 74 70 68 66 63 61 60 60 58 57 56 58 60 63 62 62 62 62 66 68 67 65 62 58 56
9 8 7 6 6 6 7 7 8 8 9 9 9 9 8 8 8 8 8 8 7 6 5 7 11 19 30 44 56 66 74 76 78 80 81 82 82 82 83 82 82 82 81 80 80 79 78 77 77 78 79 80 79 78 78 78 78 77 76 76 74 72 69 66 63 60 60 61 61 60 57 56 58 60 64 65 66 66 66 68 69 66 62 59 57 55
10 9 7 6 6 6 7 8 8 8 8 9 9 9 8 8 8 8 8 8 8 7 6 6 8 14 23 36 49 60 68 72 75 77 79 80 81 81 82 82 82 82 82 80 79 78 76 76 76 76 78 79 80 80 80 79 78 77 76 74 73 71 69 66 63 60 58 60 60 59 56 54 56 60 66 68 70 71 72 72 70 66 61 58 57 57
12 10 8 7 6 6 7 8 8 8 8 9 9 9 9 8 8 8 8 8 8 7 6 6 6 10 18 32 44 54 61 66 70 72 75 77 78 80 81 81 82 82 82 81 80 78 76 74 73 74 78 80 81 81 81 80 80 79 78 76 74 72 70 66 62 58 56 56 57 57 55 53 55 60 67 70 72 72 72 71 69 66 62 59 58 59
13 11 8 8 7 7 7 8 8 8 9 9 9 9 9 9 8 8 8 8 8 7 7 6 6 8 13 25 36 45 51 58 62 66 70 73 76 77 79 80 82 82 82 82 81 80 77 73 72 74 77 80 82 82 81 81 80 79 78 76 74 71 68 65 60 54 50 50 51 52 52 52 56 62 70 72 72 71 70 70 69 66 63 61 60 61
14 12 9 8 7 7 7 8 8 8 9 9 9 9 9 9 9 8 8 8 8 8 7 6 6 6 8 18 27 36 43 49 54 58 62 68 72 74 77 79 80 81 81 82 82 81 78 76 75 76 78 81 82 82 82 82 80 79 76 74 71 68 65 62 57 51 46 44 45 47 48 51 58 66 73 74 73 72 71 72 71 70 67 64 63 63
16 13 11 10 8 8 8 8 8 9 9 9 9 10 10 9 9 9 8 8 8 8 8 7 6 6 6 12 21 29 36 40 44 49 54 61 66 71 74 77 79 80 80 81 82 82 81 80 78 78 80 82 82 82 82 82 82 80 78 76 72 69 65 61 56 50 44 42 42 43 44 50 59 68 75 74 73 72 72 72 72 70 68 66 65 64
19 16 13 11 10 9 8 8 8 9 9 10 10 10 10 10 9 9 8 8 8 8 8 8 7 6 5 8 14 21 27 29 33 39 46 53 60 65 69 73 76 78 80 81 81 82 82 81 80 80 81 82 82 82 82 82 82 82 82 81 78 74 69 64 58 52 46 42 40 40 42 50 61 72 75 73 72 71 72 71 70 69 68 67 65 64
22 18 15 13 11 10 9 8 9 9 9 10 10 10 10 10 9 9 9 8 8 8 8 8 7 7 6 6 8 13 17 19 24 30 38 45 52 58 63 67 71 75 78 80 81 82 82 81 81 81 82 82 82 82 82 83 83 83 83 83 82 79 73 65 58 52 48 42 39 40 44 55 66 74 74 71 70 70 72 70 70 68 67 66 65 64
26 21 17 15 12 11 10 9 9 9 10 10 10 10 10 10 9 9 9 8 8 8 8 8 8 8 7 6 6 8 11 14 18 23 29 36 44 50 56 60 66 70 74 77 79 81 82 82 81 81 82 82 82 82 83 83 84 84 83 83 82 81 78 69 60 52 46 41 39 42 52 66 73 75 72 70 69 70 71 70 69 68 65 64 63 63
29 24 19 16 14 12 10 10 10 9 10 10 10 10 10 10 9 9 9 8 8 8 8 8 8 8 8 7 6 6 8 10 12 16 22 29 36 43 48 53 58 64 69 74 77 80 82 82 82 82 82 82 82 83 83 83 84 84 84 83 83 83 83 79 72 64 55 50 50 54 65 74 78 76 73 72 72 72 72 72 70 69 66 64 64 64
34 28 22 18 16 13 11 10 10 10 10 10 10 10 9 9 9 9 9 9 8 8 8 8 8 8 8 8 7 6 6 7 8 11 16 22 29 35 40 46 51 57 63 69 74 78 81 81 81 81 81 82 82 82 82 83 84 84 84 83 83 83 84 83 82 79 74 70 70 72 76 79 79 78 76 75 75 76 76 74 73 72 70 68 68 66
37 31 25 21 17 14 12 11 10 10 10 10 9 9 9 9 9 9 9 9 9 9 9 8 8 8 8 8 7 7 6 6 7 8 11 16 22 27 32 37 42 49 56 65 72 77 80 81 81 82 81 81 82 82 82 82 83 83 83 83 83 83 83 83 83 83 82 82 81 80 81 79 78 78 78 78 79 79 79 78 77 76 74 72 72 71
40 33 28 23 19 16 13 12 10 10 10 9 9 8 8 9 9 10 10 10 10 10 9 9 8 8 8 8 8 7 7 6 6 7 8 12 16 21 24 29 34 41 49 58 67 74 79 80 81 81 81 81 81 81 81 82 82 82 82 82 82 82 82 83 83 83 83 82 82 82 81 80 79 78 76 78 80 81 80 80 79 79 78 76 75 74
41 35 30 25 21 18 14 12 11 10 9 9 8 8 9 10 10 10 11 11 11 10 10 10 9 8 8 8 8 7 7 6 6 6 7 9 12 15 18 22 28 34 42 50 60 69 76 78 80 80 81 81 81 80 80 80 80 81 82 82 82 82 82 82 82 82 82 82 82 82 82 80 79 78 78 79 80 80 80 80 80 80 79 78 77 76
42 36 31 26 22 19 16 14 12 10 9 8 8 9 10 11 12 12 12 12 12 12 11 10 10 9 8 8 7 7 7 7 7 6 6 7 8 11 14 16 21 27 34 42 52 63 72 75 78 79 80 80 80 79 79 80 80 81 82 82 81 81 82 82 82 82 82 82 82 82 82 81 81 80 80 80 80 80 80 80 80 79 78 78 78 78
42 37 31 26 23 19 16 14 12 10 9 9 10 10 12 13 14 14 14 14 14 13 12 11 10 9 8 8 7 7 7 7 7 6 6 6 7 8 10 12 16 20 26 34 44 54 65 71 75 77 79 79 78 78 78 79 80 81 81 80 80 81 82 82 82 82 82 82 82 82 82 82 82 81 81 80 80 80 80 79 78 76 76 75 76 77
42 36 31 26 23 19 16 14 12 10 10 10 12 13 14 15 16 16 16 16 15 14 13 12 10 9 8 8 7 7 6 6 6 6 6 6 6 7 8 10 12 16 20 27 36 45 56 64 70 73 76 77 77 77 76 77 78 80 80 80 80 81 81 81 80 80 80 80 80 81 81 81 80 80 80 80 80 79 79 78 76 73 70 71 73 75
43 37 32 27 23 19 16 14 12 11 11 12 14 15 16 16 17 18 18 18 16 15 14 12 11 10 9 8 7 6 6 6 6 6 6 6 6 6 7 8 10 13 16 22 29 37 45 54 62 68 73 76 76 76 74 76 76 78 78 78 79 80 79 78 78 79 79 79 79 80 80 80 80 80 80 80 79 79 78 77 74 71 68 68 72 76
42 38 33 28 24 20 16 14 13 12 13 14 15 16 16 18 18 19 19 18 16 15 14 12 11 10 9 8 7 6 6 6 6 6 6 6 6 6 6 8 11 14 16 20 24 30 37 44 52 59 66 70 73 74 74 74 74 75 76 77 78 78 76 76 77 78 78 78 78 79 79 80 80 80 80 80 79 78 77 76 74 72 69 72 76 78
42 38 34 29 24 21 18 15 14 14 14 14 15 16 17 18 20 20 20 18 16 15 13 12 11 10 9 8 7 6 6 6 5 5 5 6 6 6 6 9 13 17 20 22 24 27 32 37 42 48 55 62 66 70 71 71 72 72 73 74 75 76 76 76 76 76 76 76 77 78 78 79 79 80 80 79 78 76 74 74 74 73 70 73 76 80
42 38 34 29 25 21 18 16 15 14 14 15 15 16 18 20 21 21 20 18 16 15 13 12 11 10 9 8 8 7 6 6 5 5 5 5 5 5 6 10 16 21 26 28 29 30 30 33 36 40 44 50 56 63 68 69 69 69 70 72 72 73 74 74 73 72 72 74 76 77 77 78 79 79 78 78 78 77 76 76 74 72 72 76 79 80
40 37 33 29 25 22 19 17 16 16 16 16 16 17 19 21 22 22 21 19 17 16 14 12 11 10 10 8 8 7 6 6 5 5 4 4 5 5 6 11 18 26 33 36 37 36 34 34 34 35 37 42 47 53 60 64 65 66 66 68 70 71 71 71 71 70 71 72 74 74 76 76 77 77 77 78 78 77 77 76 76 76 76 77 78 78
38 35 32 28 25 22 20 18 18 17 17 17 18 19 20 22 22 22 21 20 18 16 14 13 12 10 10 9 8 8 7 6 6 5 5 4 4 5 6 14 22 31 40 46 46 44 40 38 36 34 34 36 39 44 49 55 59 61 63 64 66 68 68 68 68 68 69 70 71 72 73 74 74 75 76 76 76 76 76 76 76 75 76 75 75 75
36 34 31 28 26 24 22 20 19 18 18 18 19 20 21 22 22 22 21 20 19 17 16 14 12 11 10 10 9 8 8 7 6 6 5 5 4 5 6 15 25 36 46 52 54 53 51 48 44 40 35 34 34 36 39 44 50 54 57 59 61 63 65 66 66 65 65 66 68 68 70 70 71 72 74 74 75 76 76 76 76 75 74 74 73 73
34 32 30 28 26 24 22 21 20 20 19 19 20 20 21 21 21 21 20 20 18 18 16 15 13 12 11 10 9 9 8 8 7 7 6 6 5 6 7 16 29 42 53 58 61 62 62 61 58 53 45 37 33 32 33 36 40 44 47 51 54 58 60 62 63 63 63 63 64 65 66 66 66 68 69 71 73 75 77 76 75 74 73 72 72 72
Wind_Speed
73 77 80 82 83 84 86 89 90 92 93 95 97 99 100 101 101 101 101 100 100 99 99 97 97 98 100 102 102 101 100 99 92 88 91 91 91 91 91 89 89 88 88 86 83 81 81 82 82 80 75 72 70 69 69 66 60 52 46 43 44 48 51 54 55 57 59 60 61 61 61 60 60 59 59 60 60 61 62 62 61 60 59 58 56 55
71 74 77 80 81 83 86 88 90 91 93 95 97 98 99 100 100 101 101 100 99 99 99 98 96 96 98 99 100 100 100 99 98 96 93 91 90 91 92 91 91 90 89 88 84 80 81 82 82 80 75 73 72 72 72 70 66 62 56 51 47 45 45 47 49 51 53 56 58 59 60 60 60 60 60 60 60 60 61 61 61 61 61 59 58 56
70 72 75 78 80 82 84 87 89 91 93 94 96 98 98 99 100 100 101 100 99 99 99 96 94 94 94 95 96 98 99 99 98 97 96 93 91 90 91 91 91 91 90 88 86 84 81 81 82 81 77 74 74 74 73 72 69 66 62 58 53 49 47 46 46 47 48 49 52 55 57 58 59 60 60 60 61 61 61 60 60 60 61 60 59 58
69 71 74 77 80 81 84 86 88 90 92 94 95 96 97 98 99 100 101 100 100 100 99 95 92 90 90 90 91 93 96 98 98 97 97 94 91 90 90 90 91 91 90 88 85 82 79 78 80 80 79 77 76 75 73 71 70 68 66 62 59 55 53 51 50 49 48 48 49 51 55 57 59 59 59 59 60 60 61 60 60 60 60 60 59 59
67 70 74 76 78 80 83 85 87 89 91 92 94 95 96 97 99 101 102 101 101 101 100 96 92 89 88 87 87 89 93 96 97 96 95 93 91 90 91 91 91 92 90 88 85 82 80 78 78 79 80 79 77 74 71 70 69 68 67 65 63 61 59 57 56 54 53 51 49 49 52 57 60 60 59 58 58 58 59 60 59 59 59 58 57 57
67 70 72 74 76 79 82 84 86 88 89 91 93 94 96 97 99 101 102 102 102 102 100 96 92 88 87 86 85 86 90 93 95 94 93 92 91 91 91 91 91 91 89 87 85 83 81 79 79 79 80 79 76 74 71 68 66 65 65 65 65 64 63 61 58 57 56 55 51 48 47 54 59 60 58 57 56 56 56 57 57 57 56 56 55 54
66 69 71 73 76 78 81 82 84 86 88 90 92 93 95 97 99 101 103 104 104 103 102 98 92 88 86 85 84 85 88 91 93 92 91 91 92 91 91 90 90 90 88 86 84 83 82 81 80 80 80 79 76 73 69 65 63 62 63 63 64 65 65 63 60 58 56 56 53 47 41 46 53 57 55 54 53 53 53 53 53 53 54 54 53 52
64 67 69 71 74 76 79 81 84 86 88 90 91 92 94 96 98 101 104 105 105 104 103 99 93 88 86 84 83 84 87 90 91 90 90 90 90 89 89 88 90 90 88 86 84 83 82 81 81 81 81 79 76 72 67 63 62 62 62 63 63 64 64 63 61 58 57 56 55 50 44 43 46 48 49 49 50 49 49 49 49 49 49 50 50 51
63 65 68 71 73 74 76 80 83 85 87 89 90 91 92 94 97 100 103 105 105 104 103 100 94 89 86 84 83 85 89 89 88 87 86 86 86 85 85 86 87 87 86 85 83 81 79 78 79 79 80 79 76 72 68 64 63 63 63 63 63 63 63 62 60 58 57 56 56 56 53 49 45 44 43 43 44 45 45 45 45 45 45 45 46 47
62 65 67 70 72 74 76 79 82 84 86 88 90 91 92 94 97 100 103 105 105 105 104 102 96 90 86 84 84 87 89 88 86 84 83 82 81 81 81 81 81 80 77 75 74 73 73 73 75 76 78 78 76 73 69 66 65 64 63 62 62 61 61 60 59 58 57 56 56 57 59 58 54 49 45 41 39 40 40 41 41 41 40 40 41 41
61 64 66 68 71 73 76 79 82 84 86 87 89 90 91 93 96 99 103 105 106 106 106 104 99 92 87 85 85 87 88 86 84 83 82 81 81 81 80 79 76 72 68 67 67 69 71 72 74 75 75 75 74 71 67 64 64 63 62 61 60 59 58 58 57 57 57 57 57 57 59 62 62 60 54 47 42 40 39 38 38 38 38 38 37 37
60 63 65 67 69 72 74 77 80 83 84 85 86 87 88 91 95 98 103 106 107 107 107 106 101 95 89 86 86 87 87 85 84 84 84 84 83 82 81 79 77 72 68 68 70 73 76 77 76 75 75 73 71 68 64 62 61 61 60 59 58 57 56 56 56 57 57 57 57 58 58 61 63 63 61 56 51 46 42 40 39 38 38 37 37 36
59 62 64 66 69 71 73 75 77 79 82 84 85 86 88 91 94 97 102 106 108 109 108 108 104 97 91 88 89 90 88 85 84 86 87 87 86 85 83 81 79 76 73 72 74 77 78 77 75 73 71 70 68 65 62 60 61 61 59 58 57 56 56 56 56 57 57 58 58 59 59 60 62 62 62 60 57 53 48 44 41 40 39 38 38 37
58 60 63 65 67 70 72 75 76 78 81 84 86 88 90 91 93 96 100 104 108 109 109 110 106 100 93 90 91 93 91 86 84 85 87 88 87 87 86 84 83 82 79 75 75 76 76 73 72 70 69 67 65 63 62 60 60 61 59 57 57 56 57 57 58 58 59 59 59 60 60 60 61 61 60 58 57 55 53 49 45 42 41 40 39 38
56 59 61 64 66 69 71 73 76 79 82 84 86 87 88 88 90 93 97 102 106 109 110 110 108 102 96 92 93 96 95 90 85 83 85 86 87 88 87 86 87 87 85 79 75 73 72 71 71 70 68 65 63 62 61 61 62 62 61 60 59 59 59 60 60 60 60 60 60 60 60 60 60 59 57 56 55 54 54 51 47 44 42 40 39 38
56 58 61 64 66 68 70 72 75 77 80 82 83 83 83 84 86 90 95 100 104 107 109 110 109 104 99 95 95 98 98 93 87 83 83 84 85 86 87 88 89 89 89 85 80 75 73 72 72 71 69 66 65 64 64 65 66 66 64 63 62 63 63 63 62 62 61 60 60 59 58 57 57 56 55 53 52 52 52 50 48 46 44 42 40 39
54 57 60 63 65 67 69 71 74 76 78 79 80 81 82 84 86 89 93 97 102 105 108 110 109 106 101 96 96 98 99 96 90 85 82 82 82 84 87 88 89 89 89 89 86 83 81 79 77 74 72 70 69 69 70 71 71 69 67 66 65 65 65 64 63 63 62 60 58 56 55 54 53 52 51 50 50 49 49 49 48 47 46 44 43 41
53 56 59 61 64 66 68 70 72 75 76 77 79 80 82 83 85 86 90 94 98 102 106 109 110 107 102 97 96 98 99 97 92 85 81 80 80 82 85 87 87 87 87 89 90 89 87 84 80 77 75 75 76 77 77 75 73 71 69 67 66 65 64 63 63 62 61 58 56 54 52 51 50 49 49 48 48 48 48 48 48 48 48 47 46 44
52 55 58 60 63 65 67 69 71 73 74 76 77 78 79 80 81 82 85 90 95 99 104 107 109 107 103 99 98 99 100 99 94 86 80 79 79 80 83 84 85 85 86 88 89 88 84 80 78 77 77 79 81 82 80 77 75 72 70 68 66 64 63 62 61 60 58 56 54 52 51 50 49 48 48 47 47 47 47 47 48 48 48 48 48 48
51 54 57 60 62 64 66 68 70 72 74 75 77 77 77 77 78 80 83 87 92 97 101 105 108 107 103 100 99 100 101 101 96 88 81 78 77 79 81 83 84 85 85 85 83 80 77 76 76 78 79 81 82 81 80 78 76 73 71 68 66 63 62 60 59 57 56 54 52 51 50 50 49 49 48 47 47 47 47 47 47 48 48 49 49 49
50 53 56 59 61 63 65 67 69 71 73 74 75 75 76 77 77 79 81 85 88 93 97 102 106 107 104 100 100 102 104 103 98 91 83 78 76 77 80 82 84 84 83 81 77 75 74 77 79 80 78 77 77 77 78 77 75 73 71 69 67 64 61 59 58 57 55 53 52 51 51 50 50 50 49 49 48 47 47 47 47 48 48 49 49 49
49 52 55 58 60 62 65 66 68 69 71 72 72 73 74 75 76 77 79 81 85 88 93 99 104 106 104 101 102 104 107 105 101 95 87 79 75 75 78 81 83 83 81 78 76 76 78 81 82 79 76 74 73 73 74 74 74 73 72 71 68 65 62 60 57 56 56 54 52 51 51 51 50 50 50 50 49 48 48 48 48 48 48 49 49 49
48 51 53 56 59 62 64 65 66 68 69 70 72 73 74 74 75 76 77 79 82 86 91 97 103 105 104 103 103 106 107 106 103 98 91 83 77 75 77 79 80 81 81 79 78 79 81 81 79 77 73 72 71 71 71 72 73 73 73 71 68 65 62 60 58 57 56 54 52 51 51 51 51 51 51 51 50 50 49 49 48 48 48 48 48 48
47 50 52 55 58 60 62 63 65 66 67 69 71 72 73 73 74 75 76 78 80 83 88 93 98 101 103 103 104 106 106 106 103 99 94 87 80 76 75 76 77 79 80 80 81 81 80 79 77 74 71 70 69 69 69 70 71 71 71 70 67 64 62 60 58 57 57 54 53 52 51 52 52 51 52 51 51 51 50 50 49 49 48 48 48 48
46 49 51 54 57 59 61 63 64 65 66 67 68 69 70 70 71 72 74 75 77 79 82 86 91 96 101 103 104 105 105 105 103 100 96 91 85 79 75 74 74 75 77 79 81 82 80 78 76 74 72 70 69 68 68 67 67 67 68 67 65 63 61 59 58 58 57 55 54 53 53 53 53 52 52 52 52 52 51 51 50 49 48 48 48 48
45 48 50 53 55 58 60 62 63 63 64 65 66 67 68 68 69 69 70 71 73 75 78 82 88 94 100 103 104 105 104 102 101 99 97 94 88 82 77 74 72 72 74 77 79 81 80 77 75 73 71 69 68 67 67 67 65 64 64 64 62 61 59 58 58 57 56 56 55 54 54 53 53 53 53 53 53 53 53 52 51 50 49 48 48 48
44 47 49 51 54 56 58 60 61 62 63 64 65 66 67 67 67 68 69 71 73 75 77 80 86 91 96 99 102 103 102 99 97 97 96 94 91 86 80 76 73 72 72 74 76 79 78 76 73 70 68 66 64 63 63 63 63 62 61 60 59 58 58 57 57 57 57 56 56 55 54 53 53 53 54 54 54 54 54 53 52 51 50 49 49 49
43 46 48 50 53 55 57 59 60 61 62 62 63 64 65 65 65 66 68 71 72 73 75 78 82 86 90 94 98 100 99 95 94 94 95 94 92 89 83 78 74 71 70 71 74 76 76 74 70 67 65 63 61 59 58 58 58 58 57 57 57 57 57 58 58 58 57 57 56 56 55 54 54 54 55 55 55 55 54 54 53 52 51 50 50 50
42 45 47 49 51 54 56 58 59 60 61 61 62 62 63 63 64 66 68 69 69 70 72 75 79 83 87 93 97 97 95 92 91 92 93 93 93 91 86 80 75 71 69 69 71 72 72 71 68 66 63 62 60 58 57 57 57 56 56 56 56 57 58 59 59 59 59 58 58 57 56 55 55 56 56 56 56 55 55 54 53 52 52 52 51 51
41 43 46 48 50 52 54 56 58 59 59 60 60 61 61 62 63 65 66 66 66 68 70 73 76 80 85 89 92 92 90 89 89 89 89 90 92 92 88 83 77 72 69 67 66 67 68 68 67 64 62 61 60 59 59 59 59 59 58 58 58 59 60 61 61 62 61 60 60 59 58 57 57 58 58 57 56 55 55 54 53 53 52 52 52 51
40 42 44 46 49 51 53 55 56 57 58 59 59 59 60 60 61 62 62 63 65 67 69 71 74 77 81 84 86 87 87 87 87 86 86 88 90 91 89 85 80 75 71 67 65 65 66 66 65 63 61 60 60 59 60 60 61 61 61 61 61 62 63 63 64 64 64 63 62 62 61 60 59 59 59 57 56 55 54 53 53 52 52 51 51 51
40 42 44 45 47 49 51 53 55 56 57 57 57 58 58 58 59 59 60 61 64 66 67 69 71 74 78 82 85 88 88 87 84 83 84 85 88 90 89 87 83 78 73 69 67 66 66 65 63 62 61 60 60 60 61 63 64 64 64 65 65 66 66 67 67 67 67 66 66 65 64 63 62 61 60 57 55 54 53 53 52 51 51 51 51 51
39 41 43 44 46 48 50 52 53 55 55 56 56 56 56 57 57 58 59 61 62 63 64 66 68 71 75 79 83 86 86 83 80 80 81 83 84 86 88 88 85 82 77 73 70 68 67 66 64 63 62 62 62 62 63 64 66 68 68 68 68 68 69 69 69 69 70 69 68 67 66 65 65 63 60 57 55 54 53 53 52 51 51 50 50 50
39 40 42 43 45 47 49 50 52 53 54 54 55 55 55 55 55 56 57 58 59 60 62 64 67 69 72 75 79 81 81 79 78 78 78 80 81 84 86 87 86 84 80 76 73 70 68 67 66 65 64 64 64 65 65 66 67 68 70 70 70 69 69 69 70 71 71 71 70 68 67 67 66 64 61 58 56 55 54 53 53 52 51 50 49 49
38 40 41 43 44 46 47 49 50 52 52 53 53 53 53 53 53 54 55 56 57 58 60 63 65 68 70 73 75 78 79 79 78 77 76 77 79 82 84 85 85 84 82 79 76 73 70 69 67 66 66 67 67 67 67 67 68 68 69 70 70 70 70 70 70 71 71 71 71 70 69 69 67 64 61 59 57 56 55 55 54 53 52 51 50 49
38 39 41 42 44 45 46 48 49 50 51 51 51 51 51 51 51 52 53 54 55 56 58 60 63 65 68 71 73 76 79 80 79 76 74 75 78 80 81 82 83 83 82 80 78 75 72 71 69 68 68 68 68 68 68 69 69 68 67 68 69 70 71 71 72 72 72 72 71 71 71 69 67 64 61 59 58 57 56 55 54 54 53 52 51 49
37 39 40 42 43 44 46 47 48 49 49 50 50 50 49 49 49 50 50 52 53 54 56 58 60 62 65 68 71 74 77 77 76 73 72 74 76 78 79 81 82 82 81 80 78 76 74 72 71 70 69 69 69 68 68 68 69 69 68 67 66 67 69 71 72 72 72 72 72 73 72 69 66 63 61 59 58 57 56 55 54 54 53 52 51 50
37 38 40 41 42 44 45 46 47 47 48 48 48 48 47 47 47 47 48 49 50 52 53 55 58 60 63 65 68 70 72 73 72 71 72 72 74 76 78 80 81 82 82 80 79 77 75 74 72 71 70 70 70 70 68 68 68 69 69 68 66 66 66 68 69 70 71 72 73 73 72 69 66 63 60 59 58 56 55 54 54 53 52 51 51 50
36 38 39 40 42 43 44 45 46 46 46 46 46 46 45 45 45 45 46 47 48 49 51 53 56 58 61 64 66 68 70 71 72 72 72 72 73 75 77 78 80 81 82 82 80 78 77 75 74 73 72 72 72 71 70 69 69 69 69 68 67 66 65 66 66 67 68 69 70 71 70 69 67 65 62 60 58 56 55 54 53 52 51 51 50 49
36 37 39 40 41 42 43 44 45 45 45 45 44 44 43 43 43 43 44 44 46 47 49 51 53 56 59 62 64 66 68 70 72 73 72 72 72 74 76 77 79 81 82 82 81 80 79 77 76 75 74 74 73 73 72 71 70 70 69 68 67 67 66 66 66 66 67 67 68 68 68 68 67 66 63 61 59 57 56 55 53 52 51 50 49 48
35 37 38 39 40 41 42 43 44 44 44 43 43 42 41 41 40 41 41 42 43 45 46 48 51 53 56 59 62 64 67 69 70 71 71 71 72 73 75 76 78 80 81 82 82 82 81 79 78 76 75 75 74 74 74 73 72 71 70 69 69 69 68 67 66 66 66 66 66 66 67 66 66 64 63 61 60 58 57 55 54 52 51 50 48 47
34 36 37 39 40 41 42 42 43 43 43 42 42 41 40 39 39 39 39 40 41 42 44 46 48 51 54 57 60 63 65 67 68 70 71 72 73 73 74 75 76 78 80 81 83 83 83 82 80 78 77 76 75 75 75 74 73 72 71 70 70 70 68 66 66 66 66 65 64 64 64 64 64 63 61 60 59 58 57 55 54 52 51 51 50 49
34 35 37 38 39 40 41 42 42 42 42 41 41 40 39 38 37 37 37 37 39 40 42 44 47 50 52 56 59 62 64 66 68 69 71 72 73 73 73 74 75 76 78 80 82 83 84 83 82 80 79 78 76 75 74 74 73 72 71 71 70 68 66 65 66 66 65 64 63 62 61 62 62 61 60 59 58 57 56 54 53 53 53 53 52 50
33 34 36 37 39 40 41 41 42 42 42 41 40 39 38 36 35 35 35 35 36 37 39 42 45 47 50 54 57 60 63 65 67 69 70 72 72 72 72 73 73 74 76 78 80 82 84 84 83 82 81 79 77 75 75 74 73 73 72 71 70 69 67 66 66 65 64 63 61 60 59 59 59 59 58 57 56 55 54 54 54 54 55 55 53 51
32 33 35 36 38 39 40 41 41 42 41 41 40 38 37 36 34 34 33 33 33 34 36 38 41 44 47 51 55 58 61 64 66 68 69 71 72 72 71 71 71 72 73 76 78 81 82 83 84 84 83 81 79 77 75 74 74 73 73 72 71 70 69 67 65 63 62 61 60 59 58 57 57 56 56 56 55 55 54 54 54 54 55 54 53 52
31 32 34 36 37 39 40 41 41 41 41 40 39 38 36 35 34 33 32 31 31 32 33 36 38 41 45 49 53 56 59 62 64 67 68 70 71 71 71 70 70 70 71 73 76 78 80 82 83 84 84 82 81 79 77 76 74 73 73 72 71 70 68 66 64 62 61 60 59 58 57 56 55 55 55 55 55 55 55 54 54 54 55 54 53 52
30 32 33 35 36 38 39 40 40 40 40 39 38 37 36 35 34 33 31 30 30 30 31 32 35 38 42 46 50 53 56 60 63 66 68 69 71 71 70 69 69 69 69 70 72 75 77 80 81 82 83 83 83 81 79 77 75 74 73 71 70 69 67 66 64 63 62 61 59 57 56 55 54 54 55 55 55 54 54 54 54 54 54 53 52 52
30 31 33 34 36 37 38 39 39 39 39 38 38 37 36 35 34 32 31 30 29 28 28 29 31 34 38 42 46 50 54 58 61 64 67 69 70 70 70 69 68 68 67 68 69 71 74 76 78 80 81 83 83 83 82 79 77 75 74 72 70 68 66 65 64 63 62 61 59 58 56 55 54 54 55 55 54 54 53 53 53 53 53 53 53 53
29 30 32 33 34 35 36 37 38 38 37 37 36 36 35 34 33 32 31 30 29 28 27 27 28 31 34 38 42 47 51 55 59 62 65 67 69 70 70 69 68 67 66 66 66 68 70 72 74 77 80 82 83 83 83 81 79 77 76 73 71 68 66 65 64 63 62 61 60 59 57 56 56 55 55 54 54 54 54 54 54 54 54 54 55 55
29 30 31 32 33 34 35 36 36 36 36 36 35 35 34 33 33 32 31 30 29 28 27 26 26 28 30 35 39 44 48 52 56 59 62 66 68 69 69 69 68 67 66 65 65 65 65 66 68 72 76 79 81 82 82 82 82 80 77 75 73 70 67 65 63 62 62 61 61 60 59 58 57 56 55 55 55 55 56 55 55 56 56 56 56 56
27 28 30 31 31 32 33 34 34 34 34 34 34 33 33 33 32 32 31 30 29 28 27 26 25 26 28 31 36 41 46 50 54 57 61 64 67 68 69 69 68 67 66 65 64 63 62 62 63 66 70 76 80 81 81 82 82 81 79 77 75 72 68 65 63 62 62 62 61 60 59 59 58 57 57 57 57 57 56 57 57 58 58 57 57 57
Wind_Direction
210 210 210 210 209 209 209 209 208 207 206 205 205 204 203 202 201 200 200 200 200 202 203 204 206 208 210 210 210 210 209 209 208 209 211 212 212 212 211 212 213 214 215 216 216 216 216 217 217 218 218 219 219 219 218 218 216 212 206 201 200 203 207 209 210 210 210 209 209 209 209 209 210 211 212 212 212 212 212 213 213 213 214 214 215 216
210 210 210 209 209 209 209 208 208 206 205 205 204 204 203 202 201 200 199 199 199 201 202 203 205 208 209 210 211 210 210 209 210 210 211 211 212 212 212 212 213 214 215 216 215 215 216 217 218 218 218 219 218 218 219 220 220 219 216 211 206 202 201 202 204 206 207 208 209 209 209 210 211 212 212 212 212 212 212 212 212 213 213 214 215 216
210 210 209 209 208 208 208 208 207 206 205 205 204 203 203 201 200 199 198 197 198 200 201 202 204 206 208 210 211 211 210 210 210 210 211 212 212 212 212 213 213 214 215 216 216 217 217 218 218 218 218 218 218 219 222 223 223 222 220 218 214 210 207 206 205 206 208 210 211 212 212 212 212 212 213 213 213 212 212 212 212 213 213 214 215 216
209 209 209 208 208 208 208 207 207 206 205 205 204 203 202 201 199 198 197 196 197 199 200 200 202 204 207 208 210 211 211 210 210 210 211 212 212 212 213 213 214 214 215 216 216 217 217 217 217 218 218 218 220 223 225 226 226 225 224 223 221 218 217 217 216 216 216 216 217 218 217 216 215 214 213 213 213 213 213 213 213 213 214 214 215 216
209 208 208 208 207 207 207 207 207 206 205 205 204 203 202 201 199 198 196 196 196 198 198 199 200 202 204 205 207 209 211 211 210 210 210 211 211 212 213 214 214 215 215 216 216 217 218 218 218 218 219 221 224 227 227 227 227 227 228 227 226 224 223 223 223 224 223 222 223 223 222 219 216 214 214 213 213 213 213 213 213 214 214 214 215 216
209 208 208 207 207 207 207 206 206 206 205 205 204 203 202 201 199 197 196 195 196 197 197 197 198 199 201 202 205 207 210 211 210 210 210 211 211 212 213 214 215 215 216 216 216 217 218 219 219 220 221 223 225 226 226 226 227 228 229 229 229 228 227 226 226 226 225 224 224 224 223 217 214 213 213 213 213 213 213 213 213 214 214 214 214 215
209 208 207 207 206 206 206 206 206 205 205 205 204 203 202 201 199 197 196 195 196 197 196 196 196 198 199 201 203 205 208 210 210 210 210 211 212 213 214 215 215 216 216 216 216 218 219 220 221 222 223 224 226 226 226 226 227 228 229 229 228 228 227 227 226 225 224 223 222 221 217 210 208 209 211 211 211 211 211 212 212 213 213 213 213 214
209 208 207 206 206 206 205 205 205 205 205 204 204 203 202 201 199 197 196 196 196 196 196 195 196 196 198 199 200 203 206 208 209 209 210 211 212 213 214 215 216 216 216 216 217 218 219 221 222 223 225 226 227 227 227 227 228 228 227 226 225 224 223 223 223 222 222 221 220 218 212 203 201 203 206 208 209 209 210 210 211 212 212 212 213 213
209 207 207 206 206 205 205 205 205 205 205 204 204 203 202 201 199 198 197 196 196 196 196 195 195 196 196 197 199 201 205 207 208 208 209 210 211 212 213 215 216 216 216 217 218 219 220 222 223 225 226 227 228 229 229 227 226 226 224 222 219 218 217 218 218 219 220 221 220 219 215 209 203 200 201 203 205 207 208 209 210 210 210 211 212 213
208 207 206 206 205 205 204 204 205 205 204 204 204 203 202 201 200 199 197 196 195 195 195 195 195 195 195 196 198 201 204 205 206 207 208 209 210 210 211 212 213 214 214 215 216 218 219 221 222 224 225 227 227 227 226 224 223 222 221 217 215 214 214 215 216 218 220 221 221 221 220 218 215 211 207 205 204 204 205 207 208 209 209 210 211 213
208 207 206 205 205 204 204 204 204 204 204 204 204 203 202 201 200 199 197 196 195 195 195 195 195 194 194 194 197 200 202 203 204 205 206 206 206 207 207 206 205 205 207 210 213 215 217 218 218 218 218 219 219 219 217 216 217 218 217 215 214 214 215 216 218 219 221 222 223 223 223 223 223 222 219 215 210 207 206 206 207 208 210 211 212 214
208 207 206 205 204 204 204 204 204 204 204 204 204 204 203 202 201 199 198 196 195 195 195 195 195 194 193 193 195 198 200 199 199 200 202 202 203 202 202 200 199 199 202 208 213 215 215 214 212 211 210 210 210 210 210 211 214 216 217 216 217 218 219 220 221 222 223 223 224 225 225 224 224 224 224 221 218 215 211 209 209 210 212 213 215 216
207 206 205 205 204 204 204 204 203 204 204 204 204 204 203 202 201 200 199 197 196 195 195 195 195 194 193 193 195 196 196 195 195 196 198 199 199 199 199 199 199 199 201 206 210 211 211 210 208 207 207 207 207 208 209 211 215 218 219 220 220 221 222 223 224 224 224 224 225 225 224 224 224 224 224 223 222 220 218 216 214 214 215 217 218 220
207 206 205 204 204 203 203 203 203 203 203 204 204 204 203 203 202 201 200 198 197 196 196 196 195 195 194 193 194 195 195 194 194 194 195 196 197 198 199 200 201 201 201 205 208 208 208 208 208 207 208 209 210 212 213 215 218 221 223 224 224 224 224 224 224 224 224 224 223 223 223 223 223 223 223 223 222 222 221 220 219 218 218 219 220 221
206 206 205 204 204 203 203 202 202 203 203 204 204 204 204 203 202 201 200 199 198 197 197 196 196 196 195 194 195 196 195 195 195 195 195 196 197 199 200 202 203 203 203 205 208 209 210 211 211 211 211 213 216 218 219 220 222 224 226 227 226 225 224 223 223 223 222 221 221 220 220 221 221 222 222 222 222 221 222 222 221 219 219 219 220 220
206 205 205 204 203 203 202 202 202 203 203 204 204 204 204 204 203 202 201 200 199 198 198 197 197 197 196 195 195 196 196 197 198 197 197 197 198 200 202 204 206 206 206 207 209 211 213 215 216 216 216 218 220 222 223 223 225 226 227 226 225 223 221 221 220 220 220 218 217 217 217 218 219 220 221 221 221 221 221 222 222 221 220 219 219 219
205 205 204 204 203 202 202 202 202 202 203 203 204 204 204 204 204 203 202 201 200 199 199 198 197 197 197 196 196 197 197 198 199 199 199 199 199 201 203 206 208 209 209 210 212 214 216 218 219 220 221 222 223 224 224 224 224 224 224 223 221 218 216 216 216 216 215 214 214 214 214 215 217 218 219 220 221 221 221 222 223 223 222 222 221 220
204 204 204 204 203 202 202 202 202 202 202 203 203 204 204 204 204 203 202 202 201 200 200 198 198 198 198 196 196 197 198 199 199 199 199 199 200 202 204 207 209 210 211 212 213 214 216 219 221 223 224 224 225 225 224 221 219 217 218 217 215 213 211 211 211 211 211 211 211 212 213 214 215 217 218 219 220 221 222 223 224 224 225 225 224 223
204 204 204 203 203 202 202 201 201 202 202 202 203 203 204 204 204 204 203 202 202 201 200 199 198 198 198 197 196 197 198 199 199 198 197 198 199 201 203 206 208 209 209 210 211 212 214 216 218 220 222 224 224 223 220 215 211 211 212 212 210 208 207 207 207 208 209 210 211 212 213 214 215 217 218 220 221 222 223 224 225 225 226 227 227 226
203 203 203 203 202 202 201 201 201 201 201 202 202 203 203 204 204 204 203 203 202 202 201 200 199 199 199 198 197 197 198 199 199 197 196 196 198 200 202 204 205 205 206 206 207 207 209 211 214 216 218 219 218 216 211 207 205 206 208 208 206 205 205 205 207 208 210 212 213 214 215 216 217 218 220 221 222 223 224 225 226 226 227 228 228 228
202 203 203 203 202 201 201 201 201 201 201 202 202 202 203 203 203 203 203 203 203 203 202 201 200 200 200 199 199 199 199 200 200 198 196 195 196 198 200 202 202 203 203 203 203 203 204 207 209 210 210 209 207 205 202 201 201 203 205 205 204 204 204 205 207 209 211 213 214 215 216 217 219 220 221 222 223 224 225 226 227 227 228 228 229 229
201 202 203 202 202 201 201 201 201 201 201 201 202 202 203 203 203 203 203 203 203 203 203 202 202 201 201 200 200 200 201 202 201 199 197 195 195 196 198 200 200 201 200 200 200 201 202 203 204 203 202 200 199 197 197 197 199 201 202 203 203 203 204 205 207 210 212 214 215 216 218 219 220 221 222 223 224 224 225 226 227 228 228 229 229 230
200 201 202 202 201 201 200 200 200 200 201 201 202 202 202 203 203 203 203 203 203 203 203 203 202 202 202 201 201 202 203 204 203 202 199 197 194 195 197 198 198 198 198 198 199 199 200 200 200 200 199 197 197 196 195 196 197 199 200 201 202 203 204 206 208 210 213 215 216 218 219 220 221 222 223 224 224 225 226 227 228 228 229 229 229 230
200 200 201 201 201 200 200 200 199 200 200 201 202 202 202 202 203 203 203 203 203 204 204 204 204 203 203 202 203 204 206 206 206 205 202 198 195 194 195 196 196 196 196 196 197 197 197 198 199 200 200 201 200 199 197 196 197 198 200 201 202 203 205 207 209 211 214 216 218 219 220 221 223 224 224 225 225 226 226 227 228 229 229 229 230 230
199 200 200 200 200 200 199 199 199 199 200 201 201 202 202 202 203 203 203 203 203 204 204 205 205 204 204 204 204 206 208 208 209 208 205 201 197 195 194 195 195 195 195 195 196 196 197 198 199 201 204 206 206 205 203 201 200 200 201 202 203 205 207 209 211 213 215 217 219 220 221 222 223 224 225 226 226 226 226 227 227 228 229 230 230 231
198 199 199 199 199 199 199 198 198 199 199 200 201 202 202 202 203 203 203 203 204 204 205 205 205 205 204 204 205 207 209 210 211 210 208 204 200 197 195 195 196 196 196 195 196 197 198 200 201 203 205 208 209 210 210 209 208 207 206 206 207 209 211 212 213 215 217 218 219 220 221 223 224 224 225 226 226 226 226 226 226 227 228 229 230 231
197 198 198 198 198 198 198 198 198 198 199 200 200 201 202 202 202 203 203 204 204 204 205 205 205 205 205 206 207 208 210 212 213 212 210 207 203 200 197 197 198 198 197 196 197 199 201 202 203 204 205 206 208 210 211 213 213 213 212 212 212 212 213 214 214 216 218 219 220 221 222 223 224 225 225 225 225 225 225 224 224 225 227 228 229 230
195 197 197 197 197 197 197 197 197 198 199 199 200 201 201 201 202 202 203 204 204 204 205 205 206 206 207 207 208 209 211 213 214 213 211 209 206 203 200 199 199 198 197 196 198 200 202 203 204 204 204 205 206 207 210 213 215 216 216 216 215 214 214 214 215 216 218 220 222 222 223 223 224 225 226 226 225 224 224 223 223 224 225 226 227 228
194 195 196 196 196 196 196 196 197 197 198 199 199 200 201 201 202 203 204 204 204 205 205 206 207 207 207 207 208 209 212 214 215 215 213 211 209 205 202 201 200 198 196 195 197 200 202 203 204 204 204 204 205 206 209 212 214 216 217 218 217 216 216 215 216 217 219 221 222 223 224 224 224 225 225 225 225 224 224 223 222 222 223 224 225 226
193 194 195 195 195 195 195 196 196 197 198 198 199 199 200 201 202 203 204 204 205 205 206 207 207 208 208 208 209 211 213 215 216 216 215 214 211 209 205 203 202 199 197 195 196 198 201 203 204 204 203 204 204 205 208 211 213 215 216 217 218 217 217 217 218 219 220 221 223 223 224 224 224 225 225 225 224 224 223 222 222 221 222 222 223 224
192 193 193 194 194 194 194 195 195 196 197 198 198 199 200 201 202 203 203 204 205 206 206 207 208 208 209 209 210 212 214 216 217 217 217 215 214 211 208 206 204 201 198 196 196 197 199 201 202 203 202 202 203 204 206 210 213 215 216 217 218 218 218 218 219 219 220 221 222 223 223 223 223 223 223 223 223 223 222 221 220 220 220 220 221 223
190 191 192 192 192 192 193 194 194 195 196 197 198 199 200 201 202 203 203 204 206 206 207 207 208 209 209 209 210 211 214 216 218 219 218 217 216 214 211 209 207 204 200 198 197 197 198 198 199 200 200 201 201 202 205 208 212 215 216 217 217 217 218 218 218 219 219 220 221 222 222 222 222 222 221 221 221 221 221 220 219 219 219 219 220 222
189 190 190 190 190 191 191 192 193 194 195 196 197 198 199 201 202 203 204 205 206 207 207 208 209 209 210 210 210 212 214 216 218 219 219 218 218 217 215 213 211 208 204 201 199 199 198 197 197 198 198 199 200 201 203 206 209 213 215 216 217 217 217 217 217 217 218 218 219 220 221 221 220 219 219 220 220 220 219 219 219 218 218 219 220 221
188 188 188 189 189 189 190 191 192 193 194 195 196 198 199 200 202 203 204 205 206 207 208 209 209 210 210 211 211 213 214 216 218 220 220 219 219 218 217 216 214 212 209 206 203 202 200 199 197 196 197 198 198 199 200 202 204 207 210 213 214 215 216 216 216 216 217 217 217 218 218 218 218 217 218 219 219 219 218 218 218 218 219 219 220 221
186 187 187 187 187 187 188 189 190 191 193 194 195 197 198 200 201 203 204 206 207 208 209 209 210 210 211 211 212 213 214 216 218 220 221 220 219 219 219 219 217 215 213 210 207 205 203 200 198 197 197 198 198 198 198 198 199 201 203 206 209 211 213 214 215 215 216 216 216 216 216 216 215 215 216 218 218 218 218 218 218 218 219 220 221 222
185 185 185 185 185 185 186 187 188 189 191 192 194 196 197 199 201 203 204 206 207 208 209 210 211 211 211 211 212 212 214 215 217 219 220 220 220 220 220 221 220 218 216 214 210 207 205 202 200 199 199 198 199 198 198 196 196 196 198 201 203 206 208 210 212 213 214 215 215 215 214 213 213 213 215 216 217 217 217 218 218 218 219 220 221 221
183 184 184 184 184 184 184 185 186 187 189 191 193 194 196 198 200 202 204 205 207 208 210 211 212 212 213 213 213 213 214 215 217 219 220 220 220 220 221 221 221 220 219 216 213 210 207 204 202 201 200 200 199 199 198 196 195 195 197 199 201 203 204 205 207 209 211 212 212 212 211 210 210 212 213 215 215 216 216 217 217 218 218 219 220 221
182 182 182 182 182 182 183 183 184 186 187 189 191 193 195 197 199 201 203 205 206 208 209 211 212 213 214 214 214 214 214 215 217 218 220 220 220 221 221 221 221 221 220 218 215 212 209 206 204 203 202 202 201 200 199 197 196 196 197 199 201 203 203 203 203 205 206 207 208 208 208 208 209 211 212 213 214 215 216 217 217 218 218 219 220 220
180 180 180 180 180 181 181 182 183 185 186 188 189 191 193 195 197 199 202 204 206 207 209 211 212 213 214 214 214 214 215 215 217 218 219 220 220 221 221 222 222 221 220 218 216 214 210 207 204 203 203 203 202 202 200 198 197 197 199 200 202 204 204 203 202 203 204 205 206 206 206 206 207 209 211 212 214 215 215 217 218 219 220 220 221 222
179 179 179 179 179 179 180 181 182 183 185 186 188 190 191 193 196 198 200 203 205 207 209 210 212 213 214 215 215 215 215 215 216 217 218 219 220 221 221 222 222 221 220 219 217 215 212 209 206 204 204 203 203 203 202 201 200 200 201 203 204 204 204 202 202 202 203 205 206 206 206 206 207 208 210 212 213 215 216 217 219 220 221 222 223 224
177 178 178 178 178 178 179 180 181 182 184 185 187 188 190 192 194 197 200 202 204 207 208 210 211 213 214 215 215 215 215 215 216 217 218 219 220 221 221 222 222 222 221 220 218 216 214 211 208 206 205 204 204 204 204 203 202 203 203 204 204 204 203 202 201 201 202 204 205 206 206 206 206 208 210 212 213 215 216 217 219 221 222 223 224 225
176 176 177 177 177 177 178 179 180 181 183 184 186 187 189 191 193 196 199 201 204 206 208 210 211 212 214 215 215 215 215 215 216 217 217 218 219 220 221 222 222 222 222 221 220 218 216 213 210 208 206 205 205 205 205 204 204 204 203 203 204 203 203 202 201 201 201 202 204 205 205 205 206 207 209 211 213 215 217 218 219 221 223 224 225 225
175 175 175 176 176 177 177 178 180 181 182 184 185 187 189 191 193 195 198 201 203 206 208 209 211 212 213 214 215 215 215 215 216 216 217 218 219 220 221 222 222 223 223 222 221 220 218 215 213 210 208 206 205 205 204 204 204 204 203 203 203 203 202 202 202 202 202 202 203 204 204 205 206 207 209 212 214 216 217 218 220 221 223 225 225 225
173 174 175 175 176 177 177 179 180 181 183 184 186 188 189 191 193 195 198 200 203 205 207 209 210 211 212 213 214 214 215 215 216 216 216 217 218 219 220 221 222 223 223 223 222 222 220 218 216 213 210 208 207 205 204 204 204 204 204 204 204 203 203 203 203 203 203 203 204 204 205 206 207 208 210 212 214 216 217 219 220 221 223 225 225 225
172 173 174 175 176 177 178 180 181 182 184 185 187 189 190 191 193 195 197 200 202 204 206 208 210 210 211 212 213 214 214 215 215 215 216 216 217 218 219 220 221 222 223 223 223 222 222 221 219 216 213 211 209 207 206 205 205 205 205 206 206 205 205 205 206 206 206 206 206 205 206 206 208 209 211 213 214 216 218 219 220 222 224 225 226 226
172 173 175 176 177 178 180 181 182 183 185 187 188 190 191 193 194 195 197 199 201 203 205 207 209 210 211 212 213 213 214 214 214 215 215 216 216 217 218 219 220 221 222 222 223 223 223 222 221 219 217 215 213 210 208 207 206 206 207 207 208 208 208 208 209 208 208 208 208 208 207 208 209 210 212 214 215 217 218 220 221 223 224 225 226 226
172 173 175 177 178 179 181 182 183 185 187 188 190 191 193 194 195 196 197 198 199 202 204 206 208 209 210 211 211 212 212 213 213 214 214 215 215 215 216 216 218 219 220 221 222 223 223 223 223 222 221 219 217 214 211 209 208 208 209 209 210 210 211 211 211 210 210 210 210 210 210 210 212 213 214 215 217 218 219 221 222 224 225 226 226 227
172 174 176 177 179 180 182 183 185 187 189 190 192 193 194 195 196 197 197 198 199 201 203 205 207 209 210 210 210 210 211 211 212 212 213 213 213 214 214 214 215 216 217 219 220 221 222 223 224 224 223 221 220 218 215 213 211 210 211 211 212 213 214 214 214 213 213 213 212 212 212 213 214 215 216 218 219 220 221 222 224 225 226 227 227 228
172 175 177 178 180 182 184 185 187 189 190 192 194 195 196 197 198 198 199 199 199 200 202 204 206 208 210 210 210 210 210 210 210 210 211 211 211 211 211 211 212 213 214 216 218 219 221 222 224 225 224 223 222 220 218 216 214 213 213 214 215 216 216 217 216 216 216 216 215 214 214 214 215 217 218 220 221 222 223 224 225 226 227 227 228 229
173 175 178 180 182 184 185 187 189 191 192 194 195 197 198 199 200 200 200 201 201 202 203 204 206 208 209 209 209 209 208 208 208 208 208 209 209 209 208 208 209 210 211 213 215 217 218 220 222 224 225 225 224 222 221 219 217 217 216 217 218 218 219 219 219 219 219 218 218 217 216 216 217 218 219 220 222 223 224 225 226 227 228 228 229 230
173 176 179 181 183 185 187 189 191 193 194 196 197 199 200 201 202 202 203 203 204 204 204 205 206 208 209 209 209 209 208 207 206 206 206 206 206 206 205 205 206 207 208 210 212 213 215 216 218 221 224 225 225 224 223 221 220 219 219 220 220 220 221 221 221 221 220 220 219 219 219 219 219 220 220 221 222 223 224 225 226 228 229 230 231 231